{"data":{"norad_id":59123,"intl_designator":"2024-043AB","name":"LYNK TOWER 6","alt_names":[],"object_type":"PAYLOAD","status":"ACTIVE","operator":null,"country":"US","launch_date":"2024-03-04","launch_site_code":"AFWTR","launch_vehicle":null,"mission":null,"orbit_class":"UNKNOWN","rcs_meters":null,"size_class":null,"mass_kg":null,"dimensions":null,"purposes":[],"wikipedia_slug":null,"has_3d_model":false,"image_url":null,"decayed_at":null,"tle_current":{"epoch":"2026-05-25T04:52:15.166848Z","epoch_age_seconds":51459,"freshness":"FRESH","line1":"1 59123U 24043AB  26145.20295332  .00004803  00000+0  16338-3 0  9995","line2":"2 59123  97.5564 281.7694 0009204 333.9410  26.1366 15.30900192123519","mean_motion":15.30900192,"eccentricity":0.0009204,"inclination_deg":97.5564,"raan_deg":281.7694,"arg_perigee_deg":333.941,"mean_anomaly_deg":26.1366,"bstar":0.00016338,"rev_number":12351,"period_min":94.062304487581,"perigee_km":466.8193174492,"apogee_km":479.4311209423,"semimajor_km":6851.2622191958,"source":"CELESTRAK","updated_at":"2026-05-25T13:38:01.193993Z"}}}